Lawrence, MA

10:42 PM EDT on June 26, 2017 (GMT -0400)
Lawrence Municipal

Weather History for KLWM - November, 2012

Change the Weather History Date:

Saturday, November 17, 2012

  Actual Average Record
Temperature  
Mean Temperature 38 °F -  
Max Temperature 48 °F 49 °F 75 °F (1928)
Min Temperature 28 °F 29 °F 12 °F (1967)
Degree Days  
Heating Degree Days 27    
Moisture  
Dew Point 27 °F    
Average Humidity 68    
Maximum Humidity 85    
Minimum Humidity 42    
Precipitation  
Precipitation 0.00 in - - ()
Sea Level Pressure  
Sea Level Pressure 30.61 in    
Wind  
Wind Speed 1 mph (NE)    
Max Wind Speed 7 mph    
Max Gust Speed -    
Visibility 10 miles    
Events      
Averages and records for this station are not official NWS values.
T = Trace of Precipitation, MM = Missing Value Source: NWS Daily Summary

Daily Weather History Graph

Daily Weather History Graph

Search for Another Location

Airport or City:

Trip Planner

Search our weather history database for the weather conditions in past years. The results will help you decide how hot, cold, wet, or windy it might be!

Date:

Astronomy

Nov. 17, 2012 Rise Set
Actual Time 6:39 AM EST 4:19 PM EST
Civil Twilight 6:08 AM EST 4:50 PM EST
Nautical Twilight 5:34 AM EST 5:24 PM EST
Astronomical Twilight 5:00 AM EST 5:57 PM EST
Moon 10:21 AM EST (11/17) 8:26 PM EST (11/17)
Length of Visible Light 10h 41m
Length of Day
9h 40m
Waxing Crescent, 20% of the Moon is Illuminated
Nov 17
Waxing Crescent
Nov 20
First Quarter
Nov 28
Full
Dec 6
Last Quarter
Dec 13
New

Hourly Weather History & Observations

Time (EST) Temp. Windchill Dew Point Humidity Pressure Visibility Wind Dir Wind Speed Gust Speed Precip Events Conditions
12:54 AM 33.1 °F - 25.0 °F 72% 30.46 in 10.0 mi Calm Calm - N/A   Clear
1:54 AM 34.0 °F 31.0 °F 25.0 °F 70% 30.48 in 10.0 mi NNW 3.5 mph - N/A   Clear
2:54 AM 33.1 °F - 24.1 °F 70% 30.49 in 10.0 mi Calm Calm - N/A   Clear
3:54 AM 30.0 °F - 24.1 °F 79% 30.52 in 10.0 mi Calm Calm - N/A   Clear
4:54 AM 30.0 °F - 24.1 °F 79% 30.54 in 10.0 mi Calm Calm - N/A   Clear
5:54 AM 30.0 °F - 24.1 °F 79% 30.56 in 10.0 mi Calm Calm - N/A   Clear
6:54 AM 28.9 °F - 25.0 °F 85% 30.59 in 10.0 mi Calm Calm - N/A   Clear
7:54 AM 32.0 °F - 27.0 °F 82% 30.62 in 10.0 mi Calm Calm - N/A   Clear
8:54 AM 39.0 °F 36.8 °F 30.0 °F 70% 30.63 in 10.0 mi Variable 3.5 mph - N/A   Clear
9:54 AM 43.0 °F 38.8 °F 28.9 °F 58% 30.63 in 10.0 mi NNE 6.9 mph - N/A   Clear
10:54 AM 45.0 °F 43.5 °F 28.0 °F 52% 30.63 in 10.0 mi NE 3.5 mph - N/A   Clear
11:54 AM 46.9 °F - 28.0 °F 48% 30.61 in 10.0 mi Calm Calm - N/A   Clear
12:54 PM 46.9 °F - 28.0 °F 48% 30.61 in 10.0 mi Calm Calm - N/A   Clear
1:54 PM 48.0 °F - 27.0 °F 44% 30.61 in 10.0 mi Calm Calm - N/A   Clear
2:54 PM 48.0 °F - 26.1 °F 42% 30.61 in 10.0 mi Calm Calm - N/A   Clear
3:54 PM 46.0 °F - 27.0 °F 47% 30.62 in 10.0 mi Calm Calm - N/A   Clear
4:54 PM 44.1 °F 42.5 °F 28.9 °F 55% 30.63 in 10.0 mi ESE 3.5 mph - N/A   Clear
5:54 PM 41.0 °F - 30.0 °F 65% 30.65 in 10.0 mi Calm Calm - N/A   Clear
6:54 PM 36.0 °F - 30.0 °F 79% 30.66 in 10.0 mi Calm Calm - N/A   Clear
7:54 PM 35.1 °F - 28.9 °F 78% 30.66 in 10.0 mi Calm Calm - N/A   Clear
8:54 PM 33.1 °F - 28.0 °F 82% 30.68 in 10.0 mi Calm Calm - N/A   Clear
9:54 PM 32.0 °F - 27.0 °F 82% 30.68 in 8.0 mi Calm Calm - N/A   Clear
10:54 PM 30.9 °F - 27.0 °F 85% 30.68 in 6.0 mi Calm Calm - N/A   Clear
11:54 PM 30.0 °F - 26.1 °F 85% 30.68 in 6.0 mi Calm Calm - N/A   Clear